NWS Regional Weather Roundup - New England Area


000
ASUS41 KBOX 192310
RWRBOX

REGIONAL WEATHER ROUNDUP
NATIONAL WEATHER SERVICE TAUNTON MA
700 PM EDT THU OCT 19 2017

NOTE:  "FAIR" INDICATES FEW OR NO CLOUDS BELOW 12,000 FEET WITH NO
SIGNIFICANT WEATHER AND/OR OBSTRUCTIONS TO VISIBILITY.

MAZALL-200000-
EASTERN MASSACHUSETTS

CITY           SKY/WX    TMP DP  RH WIND       PRES   REMARKS
BOSTON         MOCLDY    63  50  62 S13       30.00S
BEVERLY        CLEAR     66  44  45 SW12      29.97F
LAWRENCE       CLEAR     67  45  45 SW8       30.00R
BEDFORD        CLEAR     63  41  44 SW10      29.99S
BLUE HILL        N/A     60  48  64 S17G26    30.01S
NORWOOD        CLOUDY    64  47  53 S10       30.01S
MARSHFIELD     CLEAR     61  54  77 SW9G18    30.03R
PLYMOUTH       CLEAR     61  53  75 SW15G24   30.05F
TAUNTON        CLEAR     61  53  75 S10G18    30.05F
NEW BEDFORD    CLEAR     59  54  83 SW12      30.06F
$$

MAZALL-200000-
CAPE COD AND THE ISLANDS

CITY           SKY/WX    TMP DP  RH WIND       PRES   REMARKS
FALMOUTH       CLEAR     59  55  88 SW14      30.08F
HYANNIS        CLEAR     61  56  83 S17G23    30.06F
CHATHAM        CLEAR     61  58  90 SW9G21    30.09F
PROVINCETOWN   CLEAR     60  56  86 SW17      30.05F
NANTUCKET      CLEAR     60  59  96 SW14      30.11F
MARTHAS VNYRD  CLEAR     60  56  86 SW13      30.08F
$$

MAZALL-200000-
CENTRAL AND WESTERN MASSACHUSETTS

CITY           SKY/WX    TMP DP  RH WIND       PRES   REMARKS
WORCESTER      PTCLDY    59  40  49 SW16      30.02S
FITCHBURG      CLEAR     66  43  43 S3        30.00S
ORANGE         CLEAR     62  45  53 S9        30.00R
SPRINGFIELD    CLEAR     62  43  50 S12       30.00S
WESTFIELD      PTCLDY    62  44  51 S9        30.01R
NORTH ADAMS    CLEAR     65  41  41 SW8       29.98F
PITTSFIELD     CLEAR     63  38  39 SW8       30.00S
$$

RIZALL-200000-
RHODE ISLAND

CITY           SKY/WX    TMP DP  RH WIND       PRES   REMARKS
PROVIDENCE     PTCLDY    60  54  80 SW10      30.07S
NEWPORT        CLEAR     61  55  81 S13G22    30.07F
BLOCK ISLAND   CLEAR     61  56  83 SW17      30.09F
SMITHFIELD     PTCLDY    59  49  69 SW8       30.05S
WESTERLY       CLEAR     63  54  72 SW13      30.09S
$$

CTZALL-200000-
CONNECTICUT

CITY           SKY/WX    TMP DP  RH WIND       PRES   REMARKS
BRADLEY INTL   CLOUDY    63  44  50 S12       30.03R
HARTFORD       PTCLDY    63  48  58 S10       30.04S
BRIDGEPORT     CLEAR     64  53  67 S15       30.07S
DANBURY        CLOUDY    62  45  53 CALM      30.08R
GROTON         CLEAR     62  53  72 SW13G23   30.08S
NEW HAVEN      CLEAR     64  52  64 SW10      30.08S
CHESTER        FAIR      59  52  77 S7        30.08R
MERIDEN        PTCLDY    61  49  64 S5        30.06R
WILLIMANTIC    CLOUDY    61  46  57 S8        30.06S
OXFORD         PTCLDY    59  47  64 S6        30.07S
$$

MEZ002-015-021-024-NHZ003-005-008-011-012-014-VTZ005-008-200000-
NORTHERN NEW ENGLAND

CITY           SKY/WX    TMP DP  RH WIND       PRES   REMARKS
PORTLAND ME    CLOUDY    61  50  67 S8        29.92F
BANGOR ME      CLOUDY    59  52  77 S17       29.87F
CONCORD NH     CLOUDY    62  42  47 S9        29.94F
MANCHESTER NH  MOCLDY    66  42  41 S10       29.96R
NASHUA NH      CLEAR     65  42  43 VRB5      29.98S
PORTSMOUTH NH  MOCLDY    65  42  43 S10       29.94S
JAFFREY NH     CLOUDY    62  45  53 S10       30.00R
KEENE NH       CLOUDY    62  39  42 S9        29.97S
BURLINGTON VT  CLOUDY    70  41  34 SW12      29.90R
MT. WASHINGTON PTCLDY    41  32  70 W49         N/A  WCI  27
$$

NYZ052-076-200000-
EASTERN NEW YORK

CITY           SKY/WX    TMP DP  RH WIND       PRES   REMARKS
ALBANY         PTCLDY    65  45  48 S12       29.98R
NEW YORK CITY  PTCLDY    69  42  37 SW10      30.08R
$$

ANZALL-200000-
MARINE OBSERVATIONS

STATION/POSITION TIME  TEMP    WIND        PRES    VSBY  WAVE
                       AIR SEA DIR/SP/G                  HT/PER
                 (UTC) (F)     (DEG/KT/KT) (MB)    (MI)  (FT/S)
BOSTON BUOY      2250   61 59  190/ 17/ 19 1015.9R         3/ 4
BUZZARDS BAY     2200   62     220/ 24/ 26 1018.8F
NANTUCKET SOUND  2250   62 61  220/ 16/ 19 1018.8F         2/ 3
MASS BAY-STELLWA 2204   63 60  190/ 16/ 19 1015.1F         3/ 4
ISLE OF SHOALS   2200   64     190/ 26/ 27 1014.2F
S OF BLOCK IS    NOT AVBL
$$

......................KEY.........................
  SKY/WX - SKY CONDITION/PRESENT WEATHER
  TMP    - TEMPERATURE IN FAHRENHEIT
  DWPT   - DEWPOINT IN FAHRENHEIT
  RH     - RELATIVE HUMIDITY IN PERCENT
  WIND   - DIRECTION AND SPEED IN MPH
  PRES   - MEAN SEA LEVEL PRESSURE IN INCHES OF HG
  WCI    - WIND CHILL INDEX
  VSB    - VISIBILITY IN MILES
  HX     - HEAT INDEX
  TC     - TEMPERATURE IN CELSIUS
  VRB    - VARIABLE WIND DIRECTION
  N/A    - NOT AVAILABLE

NWS BOx Office Area Forecast Discussion